Date,TemperatureHighF,TemperatureAvgF,TemperatureLowF,DewpointHighF,DewpointAvgF,DewpointLowF,HumidityHigh,HumidityAvg,HumidityLow,PressureMaxIn,PressureMinIn,WindSpeedMaxMPH,WindSpeedAvgMPH,GustSpeedMaxMPH,PrecipitationSumIn
2013-1-1,34,29,24,28,24,20,94,81,67,28.80,28.56,19,7,19,0.00
2013-1-2,48,31,19,28,24,17,96,77,38,28.85,28.70,15,5,15,0.00
2013-1-3,47,33,21,28,23,18,95,69,31,28.97,28.83,14,4,14,0.00
2013-1-4,44,36,28,32,27,21,84,70,50,28.95,28.77,20,5,20,0.00
2013-1-5,55,41,32,33,27,8,87,62,15,28.85,28.65,18,8,18,0.00
2013-1-6,57,40,27,32,25,20,87,58,24,28.92,28.79,11,4,11,0.00
2013-1-7,51,39,27,29,25,20,83,58,35,28.79,28.55,15,5,15,0.00
2013-1-8,52,44,33,42,36,28,90,75,57,28.66,28.50,12,5,12,0.00
2013-1-9,46,44,40,46,41,34,99,91,74,28.78,28.53,33,12,33,0.22
2013-1-10,54,48,45,51,48,45,99,98,86,28.53,28.32,23,7,23,0.39
2013-1-11,69,53,41,52,45,35,99,77,50,28.35,28.16,25,8,25,0.00
2013-1-12,50,38,26,35,23,13,78,56,41,28.60,28.34,29,12,29,0.00
2013-1-13,36,27,21,21,13,8,79,56,33,28.82,28.59,22,9,22,0.00
2013-1-14,37,27,20,15,12,7,75,54,30,28.86,28.73,21,8,21,0.00
2013-1-15,39,30,24,17,14,8,73,52,30,28.78,28.69,13,5,13,0.00
2013-1-16,54,34,18,31,23,14,91,66,31,28.76,28.61,17,4,17,0.00
2013-1-17,59,44,32,33,30,27,84,61,32,29.01,28.76,14,4,14,0.00
2013-1-18,63,46,28,35,30,24,89,59,29,28.96,28.65,22,7,22,0.00
2013-1-19,66,48,35,37,33,30,81,58,27,28.72,28.58,10,3,10,0.00
2013-1-20,67,48,31,35,30,25,81,56,21,28.72,28.57,23,5,23,0.00
2013-1-21,47,36,26,30,15,7,62,43,24,28.90,28.70,28,8,28,0.00
2013-1-22,64,44,26,40,28,18,78,57,31,28.75,28.61,17,5,17,0.00
2013-1-23,69,51,35,49,42,34,98,73,37,28.71,28.58,15,4,15,0.00
2013-1-24,51,40,34,47,34,28,99,80,69,28.73,28.58,23,8,23,0.00
2013-1-25,54,40,28,31,29,25,91,66,39,28.73,28.59,15,6,15,0.00
2013-1-26,56,43,29,46,34,25,95,72,50,28.71,28.49,19,6,19,0.00
2013-1-27,78,62,48,58,53,46,99,76,41,28.50,28.27,23,11,23,0.00
2013-1-28,80,64,50,63,52,46,93,67,35,28.42,28.21,29,9,29,0.00
2013-1-29,68,56,38,62,42,26,92,62,23,28.26,28.04,48,12,48,1.29
2013-1-30,51,41,32,32,19,-2,76,46,12,28.59,28.26,30,12,30,0.00
2013-1-31,68,41,28,68,21,8,77,46,10,28.84,28.53,32,8,32,0.00
2013-2-1,52,36,20,29,19,13,79,53,29,28.88,28.59,17,6,19,0.00
2013-2-2,66,48,31,35,26,14,78,48,15,28.82,28.60,16,5,16,0.00
2013-2-3,68,51,30,68,27,8,73,36,10,28.82,28.39,27,6,27,0.00
2013-2-4,69,57,40,46,30,10,72,40,10,28.47,28.30,22,7,22,0.00
2013-2-5,70,51,31,54,34,21,99,58,16,28.53,28.42,17,5,17,0.00
2013-2-6,74,60,50,57,53,49,99,82,43,28.52,28.27,23,7,23,0.00
2013-2-7,62,54,40,59,44,25,99,73,30,28.71,28.25,30,10,30,0.02
2013-2-8,60,45,32,60,23,0,81,47,10,28.79,28.57,14,5,14,0.00
2013-2-9,55,47,41,55,43,26,99,85,54,28.58,28.11,30,14,30,0.00
2013-2-10,64,51,39,63,25,5,84,35,10,28.54,28.21,25,9,25,0.00
2013-2-11,56,44,34,29,24,19,70,47,24,28.70,28.53,19,8,19,0.00
2013-2-12,42,36,32,36,34,28,99,91,59,28.60,28.44,27,9,27,0.70
2013-2-13,59,40,27,36,31,26,99,75,30,28.61,28.47,11,4,11,0.01
2013-2-14,63,46,31,40,33,29,94,65,29,28.72,28.49,30,8,30,0.00
2013-2-15,47,39,33,36,25,19,82,57,35,28.92,28.72,27,7,27,0.00
2013-2-16,59,41,28,36,30,24,99,70,28,28.88,28.56,16,5,16,0.00
2013-2-17,74,52,33,74,32,11,80,41,10,28.57,28.21,30,10,30,0.00
2013-2-18,60,51,41,46,31,19,86,49,21,28.65,28.14,27,11,27,0.00
2013-2-19,56,42,27,30,24,17,85,51,22,28.79,28.60,19,7,19,0.00
2013-2-20,49,40,34,40,38,23,99,93,37,28.61,28.20,36,16,36,0.27
2013-2-21,47,35,26,41,32,20,99,89,76,28.53,28.17,26,10,26,0.28
2013-2-22,43,31,21,27,22,17,87,68,48,28.65,28.51,15,6,15,0.00
2013-2-23,50,36,26,34,29,22,96,77,51,28.59,28.33,18,6,18,0.01
2013-2-24,68,47,32,45,37,30,99,72,39,28.33,28.08,28,12,28,0.34
2013-2-25,43,36,32,42,36,31,99,98,89,28.30,28.01,36,16,36,1.07
2013-2-26,50,37,28,35,30,26,91,76,52,28.43,28.29,23,8,23,0.08
2013-2-27,50,39,29,36,29,23,92,69,39,28.77,28.43,27,9,27,0.00
2013-2-28,55,40,25,33,26,17,97,64,23,28.79,28.70,19,6,19,0.00
2013-3-1,54,40,30,35,30,25,89,69,42,28.87,28.70,27,6,27,0.00
2013-3-2,32,29,26,29,27,23,95,92,87,28.89,28.85,7,3,7,0.00
2013-3-4,75,62,44,43,38,32,70,44,23,28.61,28.12,37,15,37,0.58
2013-3-5,55,44,34,55,16,-2,66,35,10,28.92,28.60,32,10,32,0.69
2013-3-6,55,42,28,26,22,17,73,48,27,28.91,28.61,17,7,17,0.00
2013-3-7,73,55,38,41,25,13,60,36,14,28.62,28.47,23,11,23,0.00
2013-3-8,63,58,51,59,52,41,91,83,61,28.54,28.33,24,12,24,0.00
2013-3-9,72,62,50,62,46,22,99,65,19,28.34,28.14,42,11,42,0.12
2013-3-10,50,43,31,38,28,16,75,57,29,28.62,28.27,33,15,33,0.02
2013-3-11,67,43,24,31,24,17,81,53,20,28.61,28.42,17,6,17,0.00
2013-3-12,60,50,39,38,32,26,73,52,38,28.84,28.45,29,10,29,0.00
2013-3-13,69,52,32,40,34,28,90,57,23,28.92,28.74,18,5,18,0.00
2013-3-14,75,54,41,46,39,36,83,61,27,28.76,28.65,14,7,14,0.00
2013-3-15,72,68,66,40,38,37,39,33,28,28.27,28.25,15,8,15,0.00
2013-3-16,77,64,50,51,44,38,65,49,35,28.32,28.21,25,10,25,0.00
2013-3-17,61,49,38,43,38,32,79,65,47,28.40,28.15,28,9,28,0.00
2013-3-18,65,52,41,42,34,20,96,56,19,28.51,28.13,27,8,27,0.00
2013-3-19,60,51,40,42,36,26,78,56,44,28.70,28.47,22,8,22,0.00
2013-3-20,65,52,35,41,30,17,86,49,18,28.84,28.46,16,6,16,0.00
2013-3-21,84,61,48,52,38,26,76,45,16,28.46,27.92,24,12,24,0.00
2013-3-22,50,44,38,43,38,35,95,79,62,28.43,28.07,30,12,30,0.00
2013-3-23,50,44,36,44,40,31,98,88,80,28.51,28.18,23,8,23,0.01
2013-3-24,49,38,29,31,18,5,82,51,17,28.73,28.49,27,13,27,0.01
2013-3-25,51,38,25,23,14,5,76,42,16,28.90,28.72,21,7,21,0.00
2013-3-26,61,42,22,21,14,3,74,38,10,28.93,28.65,22,7,22,0.00
2013-3-27,77,57,40,42,30,21,56,39,17,28.66,28.45,27,12,27,0.00
2013-3-28,79,63,50,53,47,42,82,58,34,28.59,28.46,23,10,23,0.00
2013-3-29,79,65,54,61,56,50,98,76,48,28.58,28.43,21,10,21,0.00
2013-3-30,84,68,54,60,57,53,99,72,36,28.49,28.35,15,6,15,0.00
2013-3-31,73,64,53,60,48,38,93,60,30,28.58,28.36,43,10,43,0.48
2013-4-1,79,59,44,50,44,39,87,62,28,28.58,28.44,28,8,28,0.04
2013-4-2,44,40,38,40,38,34,99,92,77,28.65,28.54,32,14,32,0.07
2013-4-3,41,38,37,40,38,36,99,98,94,28.73,28.60,16,8,16,3.21
2013-4-4,51,41,35,41,38,35,99,88,67,28.74,28.64,11,5,11,3.27
2013-4-5,40,38,36,38,36,34,95,94,93,28.71,28.68,5,2,5,0.00
2013-4-7,76,69,65,63,62,62,92,80,62,28.14,28.09,22,14,22,0.00
2013-4-8,89,73,63,65,62,56,96,74,35,28.14,28.00,32,13,32,0.04
2013-4-9,83,60,33,65,52,28,99,76,42,28.49,28.06,34,15,34,0.39
2013-4-10,49,38,28,33,29,25,97,73,41,28.59,28.36,30,5,30,0.66
2013-4-11,63,45,29,40,29,22,87,57,25,28.52,28.26,16,5,16,0.66
2013-4-12,69,54,40,46,40,35,87,63,35,28.51,28.35,17,6,17,0.00
2013-4-13,77,62,48,50,43,32,81,54,20,28.44,28.17,22,11,22,0.00
2013-4-14,91,71,53,91,51,24,87,49,10,28.20,27.94,24,10,24,0.00
2013-4-15,79,66,56,55,44,33,69,46,32,28.26,28.05,30,12,30,0.06
2013-4-16,60,53,49,50,46,41,99,76,61,28.46,28.22,28,11,28,0.00
2013-4-17,80,59,46,71,58,46,99,96,65,28.35,28.03,27,7,27,0.09
2013-4-18,54,44,36,46,31,22,99,62,31,28.69,28.23,30,14,30,0.24
2013-4-19,70,49,28,69,31,7,81,41,10,28.76,28.54,25,6,25,0.00
2013-4-20,74,58,42,34,27,13,69,36,10,28.58,28.38,30,12,30,0.04
2013-4-21,74,61,47,52,44,33,82,57,38,28.61,28.48,21,11,21,0.00
2013-4-22,86,67,51,59,54,48,90,67,32,28.55,28.17,25,12,25,0.00
2013-4-23,69,41,36,58,34,26,94,77,65,28.80,28.25,28,14,28,0.19
2013-4-24,63,46,27,33,26,20,95,54,20,28.84,28.70,12,4,18,0.00
2013-4-25,70,56,36,40,30,13,77,42,12,28.82,28.57,19,6,19,0.00
2013-4-26,83,67,58,63,52,40,89,61,41,28.59,28.35,26,11,26,0.02
2013-4-27,80,65,54,57,50,31,95,63,18,28.67,28.50,21,8,21,0.00
2013-4-28,91,70,51,91,55,24,97,50,10,28.53,28.26,19,6,19,0.00
2013-4-29,93,76,59,93,61,24,93,43,10,28.35,28.17,30,11,30,0.00
2013-4-30,91,76,61,61,56,43,90,56,20,28.26,28.12,27,12,27,0.00
2013-5-1,85,68,44,65,56,37,93,68,40,28.69,28.20,32,13,32,0.21
2013-5-2,55,45,38,38,33,24,94,66,31,28.96,28.69,32,16,32,2.19
2013-5-3,72,52,29,72,36,6,87,39,10,28.92,28.49,27,6,27,0.00
2013-5-4,73,56,39,73,40,6,72,34,10,28.60,28.44,27,8,27,0.00
2013-5-5,73,56,38,48,42,34,89,64,34,28.72,28.55,14,4,14,0.00
2013-5-6,78,64,47,50,46,40,93,57,27,28.65,28.49,13,1,13,0.00
2013-5-7,87,73,58,51,44,31,76,41,14,28.58,28.35,22,8,22,0.00
2013-5-8,88,75,60,64,56,47,76,53,38,28.42,28.25,24,10,24,0.00
2013-5-9,84,69,61,65,61,55,98,78,42,28.47,28.32,21,4,21,0.28
2013-5-10,75,65,56,61,55,50,99,72,45,28.64,28.39,30,6,30,1.72
2013-5-11,84,67,54,57,49,30,95,59,15,28.76,28.63,22,6,22,0.00
2013-5-12,83,67,47,47,40,18,86,43,13,28.79,28.55,19,6,19,0.00
2013-5-13,93,76,57,93,52,23,69,31,10,28.66,28.51,27,9,27,0.00
2013-5-14,92,78,62,56,46,34,58,35,14,28.59,28.35,25,10,25,0.00
2013-5-15,85,72,65,68,60,49,97,67,38,28.44,28.23,22,6,22,0.06
2013-5-16,83,69,61,68,62,59,99,81,46,28.35,28.26,17,6,17,0.00
2013-5-17,91,74,64,74,69,62,99,86,56,28.37,28.24,17,6,17,0.00
2013-5-18,102,81,68,94,67,29,99,71,15,28.32,28.09,24,9,24,0.06
2013-5-19,100,85,72,99,75,20,84,35,10,28.20,28.05,30,13,30,0.28
2013-5-20,97,80,64,97,55,27,72,32,10,28.27,28.09,27,6,27,0.00
2013-5-21,80,70,57,65,51,39,86,54,25,28.50,28.25,43,8,43,3.60
2013-5-22,91,74,55,57,47,26,93,49,11,28.45,28.29,21,5,21,0.00
2013-5-23,90,76,65,69,62,50,87,66,27,28.56,28.37,27,12,27,0.00
2013-5-24,92,77,65,71,66,59,95,71,37,28.62,28.49,25,8,25,0.00
2013-5-25,88,75,64,69,64,60,92,71,41,28.64,28.43,23,8,23,0.00
2013-5-26,95,82,69,70,66,60,94,63,32,28.53,28.31,23,9,23,0.00
2013-5-27,98,84,72,68,66,56,83,57,29,28.37,28.14,30,12,30,0.06
2013-5-28,83,78,72,72,67,64,85,69,58,28.28,28.16,24,7,24,0.06
2013-5-29,87,78,72,71,67,62,89,70,45,28.26,28.01,27,12,27,0.11
2013-5-30,100,85,74,100,75,23,85,46,11,28.20,28.07,27,11,27,0.00
2013-5-31,105,88,72,100,68,34,76,44,10,28.25,28.01,25,10,25,0.00
2013-6-1,90,79,69,69,46,24,85,39,10,28.57,28.11,27,10,27,0.04
2013-6-2,87,73,59,54,48,36,80,46,18,28.66,28.44,18,3,18,0.00
2013-6-3,96,79,63,57,52,47,74,44,19,28.51,28.24,21,9,23,0.00
2013-6-4,99,82,66,71,64,55,99,60,27,28.42,28.22,27,10,27,0.15
2013-6-5,91,79,69,70,65,60,84,64,43,28.50,28.26,28,9,28,0.00
2013-6-6,84,73,64,66,59,52,99,66,38,28.52,28.42,22,7,22,0.14
2013-6-7,87,73,61,58,55,52,84,57,30,28.55,28.40,15,3,15,0.00
2013-6-8,92,77,64,63,55,41,96,50,19,28.47,28.21,34,9,34,0.60
2013-6-9,96,78,62,95,58,29,99,60,11,28.49,28.35,30,3,30,0.84
2013-6-10,102,86,68,100,60,34,87,44,10,28.47,28.33,22,7,22,0.00
2013-6-11,100,87,70,63,54,39,58,35,13,28.48,28.34,24,8,24,0.00
2013-6-12,100,88,74,68,62,53,76,45,21,28.51,28.37,27,9,27,0.00
2013-6-13,102,89,75,68,62,52,74,45,20,28.55,28.38,17,5,17,0.00
2013-6-14,96,85,74,68,61,50,77,48,21,28.50,28.41,21,6,21,0.00
2013-6-15,91,80,71,70,65,59,90,60,35,28.56,28.38,25,6,25,0.05
2013-6-16,99,86,71,73,66,60,94,56,30,28.53,28.33,21,5,21,0.00
2013-6-17,91,81,66,70,66,59,99,65,35,28.54,28.35,30,5,30,0.60
2013-6-18,92,80,70,70,65,58,94,64,35,28.57,28.43,13,3,13,0.00
2013-6-19,87,76,70,73,67,60,99,78,42,28.57,28.33,34,5,34,1.83
2013-6-20,98,84,69,71,66,57,89,59,29,28.48,28.35,24,9,24,0.00
2013-6-21,98,87,76,70,65,57,74,51,29,28.51,28.38,25,9,25,0.00
2013-6-22,98,88,74,65,61,54,65,43,26,28.47,28.30,29,10,29,0.00
2013-6-23,100,88,77,66,56,40,65,38,13,28.40,28.29,27,10,27,0.00
2013-6-24,99,87,75,66,60,50,62,42,21,28.47,28.30,27,10,27,0.00
2013-6-25,103,90,78,70,65,58,66,47,27,28.41,28.22,27,10,27,0.00
2013-6-26,106,93,79,66,62,56,60,38,21,28.40,28.28,18,7,18,0.00
2013-6-27,109,93,78,100,62,37,73,38,10,28.56,28.33,31,6,31,0.39
2013-6-28,104,91,77,64,55,43,60,34,14,28.54,28.40,18,4,22,0.39
2013-6-29,101,88,77,63,55,46,59,35,16,28.53,28.35,15,2,15,0.00
2013-6-30,95,83,73,58,51,40,56,35,16,28.53,28.42,21,5,21,0.00
2013-7-1,88,77,65,54,48,38,66,39,19,28.66,28.53,20,4,20,0.00
2013-7-2,93,77,58,93,50,24,61,27,10,28.68,28.51,15,2,15,0.00
2013-7-3,94,79,63,94,41,26,59,29,10,28.61,28.42,14,2,14,0.00
2013-7-4,99,82,66,99,47,30,68,33,10,28.53,28.35,25,5,25,0.01
2013-7-5,102,86,69,100,59,30,73,31,10,28.48,28.30,19,8,19,0.00
2013-7-6,101,87,75,59,50,33,54,32,11,28.44,28.32,179,9,179,0.00
2013-7-7,102,88,74,61,55,48,60,35,17,28.50,28.40,22,6,22,0.00
2013-7-8,104,90,74,67,60,50,69,40,18,28.56,28.43,18,5,18,0.00
2013-7-9,104,92,78,67,59,51,64,37,18,28.57,28.42,18,6,18,0.00
2013-7-10,104,92,79,61,56,48,52,32,16,28.56,28.40,24,4,24,0.00
2013-7-11,108,90,80,69,60,43,63,41,13,28.49,28.38,21,3,21,0.09
2013-7-12,106,91,77,70,61,43,75,42,13,28.48,28.36,18,5,18,0.00
2013-7-13,108,93,78,100,61,35,70,34,10,28.51,28.35,16,5,16,0.00
2013-7-14,88,75,64,66,62,55,99,67,44,28.58,28.40,26,8,26,0.25
2013-7-15,80,70,65,69,65,62,99,87,62,28.62,28.53,15,3,15,0.06
2013-7-16,76,70,68,76,70,67,99,99,95,28.74,28.58,17,3,17,1.18
2013-7-17,87,76,68,75,71,68,99,87,59,28.79,28.67,16,2,16,0.11
2013-7-18,93,81,70,73,69,64,99,70,42,28.72,28.53,17,3,17,0.00
2013-7-19,96,83,71,72,67,60,94,61,35,28.58,28.41,20,4,20,0.00
2013-7-20,99,86,72,71,65,53,95,55,23,28.48,28.33,17,5,17,0.00
2013-7-21,99,87,74,71,64,53,87,51,23,28.42,28.30,21,6,21,0.00
2013-7-22,99,88,75,71,68,63,84,55,35,28.44,28.32,23,7,23,0.00
2013-7-23,100,90,78,72,70,65,79,54,33,28.44,28.30,19,6,19,0.00
2013-7-24,99,87,75,72,69,64,82,58,35,28.52,28.34,30,6,30,0.01
2013-7-25,88,80,71,76,72,68,99,79,57,28.62,28.48,17,4,17,0.19
2013-7-26,92,81,73,77,71,64,99,74,41,28.60,28.43,21,5,21,0.07
2013-7-27,94,81,68,72,66,56,99,64,30,28.61,28.41,17,3,17,0.00
2013-7-28,94,82,68,68,62,45,95,58,21,28.50,28.36,17,6,17,0.00
2013-7-29,98,86,75,73,70,64,88,60,42,28.44,28.33,23,8,23,0.00
2013-7-30,100,88,76,74,68,65,76,55,34,28.55,28.39,17,5,17,0.00
2013-7-31,86,80,76,75,74,70,93,82,60,30.12,28.53,18,4,18,0.00
2013-8-1,96,84,76,71,68,61,84,62,32,30.14,29.99,17,3,17,0.00
2013-8-2,107,96,79,74,58,47,84,35,14,29.96,28.30,18,8,18,0.00
2013-8-3,107,92,78,69,57,40,60,34,11,28.49,28.36,19,6,19,0.00
2013-8-4,104,91,78,66,59,47,65,38,16,28.56,28.39,17,6,17,0.00
2013-8-5,106,92,78,67,59,45,69,37,14,28.49,28.29,23,7,23,0.00
2013-8-6,109,94,77,62,54,40,60,30,10,28.38,28.22,20,6,20,0.00
2013-8-7,101,88,72,72,64,56,92,46,26,28.42,28.27,35,4,35,1.09
2013-8-8,102,82,71,73,69,60,96,71,26,28.43,28.28,17,4,17,1.17
2013-8-9,92,80,69,72,68,64,99,71,41,28.60,28.41,17,4,17,0.09
2013-8-10,92,80,70,71,67,63,94,68,41,28.69,28.54,12,3,12,0.00
2013-8-11,101,83,70,73,68,63,99,64,30,28.64,28.47,26,3,26,0.12
2013-8-12,98,82,73,76,71,62,99,74,33,28.62,28.43,21,5,26,0.46
2013-8-13,91,80,72,76,71,68,97,77,49,28.58,28.46,12,3,12,0.13
2013-8-14,91,80,70,73,69,64,99,72,44,28.64,28.49,13,3,13,0.00
2013-8-15,94,80,70,73,68,21,92,69,42,28.58,28.45,17,4,17,0.00
2013-8-16,94,78,65,69,65,61,94,68,35,28.60,28.46,14,3,14,0.11
2013-8-17,91,78,67,67,64,61,91,65,39,28.65,28.51,16,4,16,0.00
2013-8-18,94,80,68,65,61,52,87,56,26,28.62,28.48,17,6,17,0.00
2013-8-19,96,82,69,64,60,55,78,50,27,28.57,28.44,20,6,20,0.00
2013-8-20,100,85,72,62,59,55,68,45,23,28.54,28.43,17,6,17,0.00
2013-8-21,99,85,70,61,55,45,68,40,17,28.60,28.48,18,4,18,0.00
2013-8-22,102,87,72,68,59,45,75,43,16,28.60,28.42,17,4,17,0.00
2013-8-23,104,88,74,68,61,43,74,45,14,28.56,28.41,23,4,23,0.00
2013-8-24,104,88,75,70,64,52,79,50,19,28.61,28.49,18,4,18,0.00
2013-8-25,102,88,74,69,64,54,78,49,23,28.67,28.56,19,4,19,0.00
2013-8-26,98,86,72,67,62,55,75,48,28,28.70,28.56,15,4,15,0.00
2013-8-27,95,82,70,70,64,60,75,56,34,28.63,28.50,19,4,19,0.00
2013-8-28,99,86,73,70,64,55,88,53,25,28.60,28.49,17,5,17,0.00
2013-8-29,101,86,74,62,56,43,64,40,15,28.60,28.46,17,3,17,0.00
2013-8-30,107,91,76,64,54,42,66,33,12,28.53,28.37,22,4,22,0.00
2013-8-31,108,92,74,100,58,36,55,26,10,28.44,28.29,15,3,15,0.00
2013-9-1,106,88,76,67,58,27,57,39,16,28.46,28.32,19,4,19,0.00
2013-9-2,100,85,74,73,62,49,87,51,20,28.57,28.42,16,4,16,0.00
2013-9-3,100,83,64,62,52,35,75,40,12,28.60,28.45,12,2,12,0.00
2013-9-4,86,73,67,63,58,54,72,60,44,28.63,28.52,8,1,8,0.00
2013-9-5,102,94,82,67,55,46,58,28,16,28.64,28.51,15,3,15,0.00
2013-9-6,104,88,73,64,58,47,63,39,16,28.61,28.45,15,3,15,0.00
2013-9-7,105,88,74,65,58,44,68,41,14,28.54,28.39,26,3,26,0.00
2013-9-8,101,87,73,66,57,42,71,42,14,28.50,28.36,17,4,17,0.00
2013-9-9,97,85,72,66,59,51,72,45,23,28.50,28.37,19,5,19,0.00
2013-9-10,95,83,72,68,64,58,80,53,31,28.60,28.46,20,6,20,0.00
2013-9-11,96,83,73,69,62,50,79,52,22,28.65,28.51,17,3,17,0.00
2013-9-12,100,85,71,65,59,48,73,45,19,28.63,28.46,11,2,11,0.00
2013-9-13,88,78,73,71,68,62,84,72,51,28.56,28.43,17,4,17,0.00
2013-9-14,94,80,72,70,66,64,85,66,39,28.53,28.39,14,3,14,0.01
2013-9-15,97,84,70,68,62,56,76,50,27,28.54,28.44,15,6,21,0.00
2013-9-16,95,79,68,71,67,62,99,72,36,28.64,28.50,20,4,20,1.02
2013-9-17,89,75,68,74,71,68,99,89,54,28.63,28.48,19,2,19,0.30
2013-9-18,94,83,73,71,64,52,86,59,25,28.51,28.35,25,6,25,0.00
2013-9-19,88,77,71,71,66,58,92,71,48,28.54,28.37,17,5,17,0.00
2013-9-20,72,68,60,69,62,54,99,82,55,28.57,28.41,18,5,18,0.09
2013-9-21,86,69,54,59,50,39,94,59,20,28.59,28.42,11,1,11,0.00
2013-9-22,88,72,57,52,47,37,80,47,18,28.46,28.30,14,3,14,0.00
2013-9-23,90,73,57,55,50,45,83,49,22,28.37,28.22,20,6,20,0.00
2013-9-24,91,77,68,55,44,28,61,35,11,28.44,28.37,12,2,12,0.00
2013-9-25,95,78,60,58,50,38,70,42,15,28.43,28.22,17,4,17,0.00
2013-9-26,96,81,68,62,57,45,75,47,19,28.35,28.25,24,7,24,0.00
2013-9-27,91,79,67,71,64,54,77,60,43,28.40,28.25,20,8,20,0.00
2013-9-28,79,70,58,74,56,40,99,65,27,28.65,28.30,25,7,25,0.50
2013-9-29,83,66,53,55,46,29,89,57,15,28.65,28.43,9,2,9,0.00
2013-9-30,90,72,56,55,52,48,80,52,24,28.45,28.26,17,6,17,0.00
2013-10-1,92,75,60,65,58,53,87,58,29,28.41,28.31,19,8,19,0.00
2013-10-2,90,78,67,71,66,60,93,68,45,28.44,28.30,18,7,18,0.00
2013-10-3,94,80,69,72,68,62,99,69,36,28.36,28.20,20,8,22,0.00
2013-10-4,92,81,62,69,66,53,87,62,41,28.42,28.19,29,9,29,0.13
2013-10-5,72,60,51,53,35,24,71,41,18,28.67,28.42,27,8,29,0.13
2013-10-6,81,62,43,81,36,18,77,39,10,28.70,28.56,20,4,20,0.00
2013-10-7,84,67,50,47,40,29,81,42,14,28.70,28.56,10,1,10,0.00
2013-10-8,88,69,52,44,37,24,64,36,11,28.59,28.42,17,5,17,0.00
2013-10-9,84,69,53,50,45,39,78,46,22,28.53,28.40,20,8,20,0.00
2013-10-10,87,73,58,62,57,50,84,59,35,28.50,28.28,24,9,24,0.00
2013-10-11,90,75,63,90,59,18,93,40,10,28.37,28.26,26,6,26,0.00
2013-10-12,80,67,57,50,45,32,65,46,29,28.65,28.36,21,7,21,0.00
2013-10-13,74,66,58,68,59,49,98,78,65,28.77,28.61,21,5,21,0.00
2013-10-14,79,71,67,71,68,66,99,91,75,28.63,28.34,14,5,14,0.02
2013-10-15,71,59,52,70,46,38,99,63,43,28.66,28.39,26,8,26,0.02
2013-10-16,58,52,44,42,38,35,80,61,46,28.71,28.59,14,4,14,0.00
2013-10-17,77,56,37,46,40,33,91,60,22,28.61,28.44,12,2,12,0.00
2013-10-18,61,50,38,56,46,36,99,86,55,28.73,28.43,23,6,23,0.18
2013-10-19,70,49,32,45,34,20,99,67,15,28.72,28.53,19,4,19,0.01
2013-10-20,78,59,41,53,44,37,87,62,34,28.53,28.26,15,4,18,0.00
2013-10-21,67,57,48,51,41,32,86,58,29,28.66,28.36,27,8,27,0.00
2013-10-22,84,60,41,42,35,21,85,49,10,28.66,28.52,20,5,20,0.00
2013-10-23,88,65,44,87,44,18,83,39,10,28.62,28.48,24,4,24,0.00
2013-10-24,69,58,48,49,42,37,83,58,34,28.84,28.57,27,6,27,0.00
2013-10-25,70,55,42,50,42,35,80,64,42,28.91,28.67,15,4,15,0.00
2013-10-26,78,62,53,63,53,45,99,75,37,28.69,28.53,24,5,24,0.02
2013-10-27,75,58,42,52,38,12,86,55,11,28.67,28.46,11,3,11,0.00
2013-10-28,71,62,52,67,60,52,99,94,85,28.54,28.40,23,7,23,0.00
2013-10-29,69,68,68,66,66,65,93,91,89,28.47,28.43,19,11,19,0.00
2013-10-30,77,73,66,69,68,64,97,84,76,28.28,28.22,25,7,25,0.17
2013-10-31,72,62,53,65,45,32,96,58,25,28.38,28.17,30,8,30,0.30
2013-11-1,74,59,47,46,38,19,84,52,14,28.68,28.30,21,5,21,0.00
2013-11-2,70,55,39,35,30,19,74,43,15,28.85,28.65,13,3,13,0.00
2013-11-3,68,55,42,46,36,30,74,51,24,28.66,28.38,23,7,23,0.01
2013-11-4,76,61,50,57,49,43,97,68,39,28.51,28.39,20,7,20,0.02
2013-11-5,75,62,49,65,60,44,99,91,70,28.60,28.33,33,8,33,0.48
2013-11-6,60,48,42,44,36,31,86,65,34,28.88,28.59,17,4,17,0.50
2013-11-7,69,51,35,40,32,20,91,56,16,28.98,28.83,15,3,15,0.00
2013-11-8,68,54,42,42,31,13,72,48,13,28.83,28.52,27,9,27,0.00
2013-11-9,70,56,44,52,45,39,95,69,42,28.70,28.52,13,4,13,0.00
2013-11-10,68,56,50,57,53,49,99,90,67,28.83,28.70,14,2,14,0.00
2013-11-11,72,58,43,58,54,39,99,88,61,28.95,28.64,30,6,30,0.14
2013-11-12,46,37,26,39,18,8,85,49,22,29.26,28.94,27,9,27,0.17
2013-11-13,54,37,19,54,13,-3,78,42,10,29.15,28.75,15,5,15,0.00
2013-11-14,57,44,32,41,30,19,73,58,37,28.75,28.41,21,7,21,0.02
2013-11-15,71,54,35,49,38,31,88,57,27,28.45,28.22,15,5,15,0.00
2013-11-16,85,71,60,57,48,34,77,49,18,28.22,28.02,32,14,32,0.70
2013-11-17,76,64,52,55,38,21,86,45,15,28.59,28.11,21,8,21,0.00
2013-11-18,66,56,45,31,21,9,40,27,13,28.76,28.59,15,3,15,0.00
2013-11-19,67,58,51,41,36,31,56,45,34,28.66,28.39,21,9,21,0.00
2013-11-20,77,64,53,59,51,38,87,65,43,28.40,28.26,19,10,19,0.00
2013-11-21,78,53,31,63,46,22,97,80,36,28.92,28.37,30,12,30,0.30
2013-11-22,32,29,27,28,24,18,94,80,65,29.07,28.90,28,8,28,0.17
2013-11-23,38,34,31,26,22,12,76,62,41,29.11,29.00,23,4,23,0.00
2013-11-24,33,27,24,27,24,21,99,88,65,29.13,28.76,19,4,19,0.00
2013-11-25,35,31,27,33,30,25,99,96,88,28.76,28.64,11,2,11,0.05
2013-11-26,37,32,26,32,28,24,97,86,65,28.91,28.69,15,3,15,0.00
2013-11-27,47,38,28,26,24,22,89,59,39,28.91,28.73,15,4,15,0.00
2013-11-28,60,43,29,37,28,20,88,61,23,28.84,28.71,13,3,13,0.00
2013-11-29,61,45,31,38,32,27,87,64,33,28.88,28.71,21,7,21,0.00
2013-11-30,67,50,40,46,42,37,93,76,44,28.72,28.56,9,2,9,0.00
2013-12-1,66,50,41,46,43,39,99,78,45,28.59,28.40,8,2,8,0.00
2013-12-2,71,51,33,46,38,32,99,67,27,28.40,28.12,10,1,10,0.00
2013-12-3,80,55,36,80,37,17,93,56,10,28.12,27.99,18,4,18,0.00
2013-12-4,53,42,31,35,30,16,90,63,41,28.55,28.00,26,8,26,0.00
2013-12-5,31,24,18,20,12,4,94,62,41,28.76,28.54,23,11,23,0.00
2013-12-6,26,18,14,17,11,1,97,75,52,29.01,28.70,21,8,21,0.00
2013-12-7,19,14,4,12,5,-3,78,66,55,29.04,28.68,18,4,18,0.00
2013-12-8,35,24,16,27,20,12,97,85,71,28.68,28.40,23,7,23,0.00
2013-12-9,26,23,14,22,17,11,93,80,66,28.88,28.60,19,5,19,0.00
2013-12-10,39,24,9,29,18,6,93,80,60,28.87,28.64,14,3,14,0.00
2013-12-11,40,32,23,28,24,19,93,73,57,29.05,28.65,23,4,23,0.00
2013-12-12,39,31,21,35,26,18,90,80,68,29.04,28.65,10,1,10,0.01
2013-12-13,57,44,37,44,39,34,99,83,59,28.65,28.19,21,4,21,0.02
2013-12-14,50,38,29,35,27,20,87,67,30,28.78,28.31,26,6,26,0.00
2013-12-15,63,43,25,34,28,22,91,61,23,28.77,28.62,15,1,15,0.00
2013-12-16,71,46,26,35,30,24,91,58,19,28.68,28.58,4,0,4,0.00
2013-12-17,68,49,32,36,30,25,86,53,24,28.78,28.65,15,1,15,0.00
2013-12-18,70,50,32,44,35,28,85,59,25,28.73,28.33,22,4,22,0.00
2013-12-19,71,58,49,51,48,43,93,71,39,28.33,28.12,24,7,24,0.00
2013-12-20,55,34,29,50,28,18,99,78,59,28.50,28.18,22,4,22,0.01
2013-12-21,33,31,29,32,31,27,99,98,92,28.33,28.07,0,0,0,0.01
2013-12-22,38,30,26,32,27,23,95,88,74,28.81,28.32,0,0,0,0.12
2013-12-23,42,30,23,33,28,23,99,90,66,29.00,28.79,15,1,15,0.05
2013-12-24,49,33,24,41,31,24,99,91,74,28.98,28.56,14,3,14,0.00
2013-12-25,51,38,29,36,32,27,99,81,49,28.90,28.64,20,2,20,0.00
2013-12-26,58,38,24,35,27,16,96,68,20,28.89,28.74,11,1,11,0.00
2013-12-27,60,48,34,35,28,22,75,48,23,28.85,28.74,15,2,15,0.00
2013-12-28,58,43,31,45,35,26,96,75,43,28.74,28.38,21,3,21,0.00
2013-12-29,43,31,21,43,23,14,99,74,55,28.79,28.37,30,8,30,0.25
2013-12-30,48,30,16,23,18,13,89,64,35,28.84,28.68,8,0,8,0.00
2013-12-31,57,39,23,31,26,18,87,62,30,28.84,28.53,21,3,21,0.00
2014-1-1,58,38,25,35,29,19,92,71,34,28.84,28.35,27,5,27,0.00
2014-1-2,45,30,17,24,19,13,88,65,40,28.97,28.80,15,1,15,0.00